CAPE
0 0 0 0 0 0 0 0 0 1 27 0 1 188 407 434 532 912 1286 1129 1011 765 721 494 215 479 366 490 402 1010 865 41 81 5 0 0 0 0 0 0 0 0 0 0 1 48 150 238 500 677 832 871 866 889 846 959 1154 1213 1245 1252 1294 1071 1062 1188 1238 1175 1020 813 615 611 592 735 786 873 991 933 1040 1302 1625 2288 2106 2218 2312 2697 3083 2955
0 0 0 0 0 0 0 0 0 8 21 13 116 228 357 458 503 850 1178 955 1070 741 515 568 272 356 406 560 856 809 917 14 358 31 0 0 0 0 0 0 0 0 0 0 0 18 130 163 402 706 809 839 862 846 889 958 1173 1230 1249 1228 1250 1118 1176 1184 1281 1201 903 744 629 634 751 816 774 873 1012 1007 1098 1351 1616 2136 2276 2332 2396 2824 3057 3365
0 0 0 0 0 0 0 0 0 0 0 2 5 335 402 553 1067 1067 1117 1039 830 587 566 568 331 264 316 581 553 917 563 540 525 605 9 0 0 0 0 0 0 0 0 0 0 14 71 182 496 702 765 814 838 844 980 1044 1123 1191 1249 1195 1206 1128 1154 1218 1276 1210 856 797 962 973 944 888 852 898 926 1059 1175 1406 1565 1974 2316 2387 2524 2926 3058 3092
0 0 0 0 0 0 0 0 0 0 0 0 0 235 380 634 563 633 833 892 905 419 518 548 366 691 526 396 454 742 765 593 846 702 776 5 0 0 0 0 0 0 0 0 0 12 37 224 509 632 726 804 847 883 1019 1077 1116 1150 1219 1198 1166 1143 1153 1188 1296 1168 814 865 973 1296 1197 981 1145 1140 1364 966 1289 1358 1486 1937 2209 2328 2538 2900 3082 2870
0 0 0 0 0 0 0 0 0 0 0 0 0 0 33 742 366 633 775 869 712 447 354 439 282 657 505 441 294 480 786 556 721 889 463 560 711 231 96 0 0 0 0 0 0 10 49 183 355 555 666 761 799 839 913 967 980 1075 1210 1234 1168 1164 1162 1164 1357 1086 889 1370 1317 1551 1598 1849 1999 1888 1569 1394 1391 1417 1791 2113 2153 2226 2480 2760 2870 2715
0 0 0 0 0 0 0 0 0 0 0 0 0 0 45 573 520 721 732 691 533 429 384 300 144 454 526 472 290 269 563 770 585 578 522 487 368 424 144 24 0 0 0 0 1 22 61 124 126 197 600 702 718 739 803 848 883 997 1132 1216 1158 1174 1170 1157 1256 986 1108 1394 1409 1621 1707 1827 1833 1702 1750 1674 1577 1741 2140 2405 2252 2235 2459 2645 2756 2636
0 0 0 0 0 0 0 0 0 0 3 0 0 1 1 518 630 696 703 584 418 471 414 355 91 154 237 446 372 274 487 708 365 444 560 654 362 533 598 280 1 0 0 0 0 15 43 110 67 294 551 614 631 681 738 786 860 944 1017 1062 1000 1098 1190 1196 1252 1070 1410 1289 1450 1616 1701 1757 1815 1754 1911 1912 1728 1920 2302 2518 2414 2436 2535 2594 2670 2603
0 0 0 0 0 0 0 0 0 0 1 0 1 3 45 553 706 734 648 504 400 328 321 372 94 5 0 180 356 370 412 506 454 320 440 348 457 423 556 701 334 0 0 0 0 4 27 111 242 383 488 554 594 630 680 742 818 893 961 962 950 909 1138 1188 1303 1215 1303 1257 1390 1492 1564 1673 1706 1690 1872 1918 1928 2095 2459 2460 2469 2676 2773 2634 2632 2534
0 0 0 0 0 0 0 0 5 10 0 0 6 4 555 602 676 688 640 468 250 381 417 367 7 19 2 62 118 272 307 472 532 337 464 291 260 361 446 738 987 447 0 0 0 0 7 26 166 231 380 498 553 603 648 704 774 861 937 953 929 909 1020 1098 1201 1242 1249 1281 1300 1398 1373 1580 1573 1567 1677 1814 2069 2200 2514 2516 2424 2615 3021 2846 2723 2600
0 0 0 0 0 0 0 0 0 0 9 2 393 728 668 575 622 680 506 389 237 122 182 189 189 4 1 54 33 71 207 291 562 458 536 259 338 412 327 586 988 850 226 0 0 0 4 24 80 171 287 450 538 582 614 633 693 844 937 957 945 919 968 1055 1116 1188 1156 1217 1215 1352 1363 1415 1548 1549 1478 1550 1852 2082 2381 2344 2316 2387 2854 2951 2816 2712
0 0 0 0 0 0 0 0 0 8 13 655 699 731 737 615 553 528 458 322 123 50 3 73 125 2 6 45 15 68 148 270 410 634 496 375 540 461 335 601 1070 840 693 18 0 0 2 25 50 60 99 382 489 529 544 552 447 828 930 954 952 950 952 1004 1080 1114 1107 1055 1084 1271 1350 1354 1447 1492 1435 1277 1526 1884 2260 2290 2200 2284 2601 2848 2837 2770
0 0 0 0 0 0 0 0 0 1 314 624 822 687 667 467 381 372 235 0 1 10 3 1 82 4 6 0 21 3 192 218 442 569 615 450 535 552 465 890 919 891 1134 781 0 0 0 5 24 39 48 160 336 367 437 469 417 795 897 928 938 927 946 952 980 1041 1065 1011 1118 1196 1303 1327 1349 1406 1365 1146 1265 1671 2030 2184 2252 2225 2460 2681 2767 2769
0 0 0 0 0 0 0 0 0 7 189 434 729 708 521 53 277 194 225 10 0 4 5 3 3 26 37 14 182 5 66 175 373 509 739 530 508 554 402 1088 859 1068 1566 1184 33 0 0 0 2 17 21 10 13 219 323 387 492 749 856 887 882 905 900 841 815 993 1019 1105 1081 1171 1249 1285 1291 1358 1311 1180 1064 1485 1808 2030 2157 2213 2401 2580 2618 2686
0 0 0 0 0 0 0 0 0 1 0 458 472 317 255 332 10 118 0 0 4 116 56 172 140 142 202 175 358 492 476 867 571 452 532 831 731 686 590 982 1132 1443 1212 710 205 0 0 0 0 6 10 19 18 35 166 324 425 697 784 811 810 843 822 729 856 982 973 1112 1092 1150 1193 1187 1252 1253 1339 1230 1284 1288 1598 1885 2027 2073 2283 2473 2514 2541
0 0 0 0 0 0 0 0 0 0 0 190 186 6 11 142 0 0 0 2 3 231 223 209 111 6 62 169 501 536 659 863 1148 1118 370 458 666 830 1328 1420 1357 990 1106 1019 122 0 0 0 0 0 7 24 31 36 156 218 330 626 718 716 695 739 804 684 895 981 938 1028 1118 1204 1304 1150 1229 1268 1389 1340 1402 1425 1439 1800 1932 1967 2106 2228 2327 2352
0 0 0 0 0 0 0 0 0 0 0 0 103 147 210 12 0 0 0 6 259 261 243 201 147 119 234 172 360 605 632 696 975 1200 1317 1112 718 852 1072 1218 1205 1029 1096 1295 378 391 373 190 48 0 0 13 27 50 128 271 209 485 689 652 650 543 787 525 974 994 919 934 1095 1112 1303 1438 1356 1531 1451 1525 1649 1516 1501 1757 1895 1926 2004 2053 2084 2174
0 0 0 0 0 0 0 0 0 0 0 0 62 174 0 0 0 0 213 238 232 221 223 198 175 182 227 324 555 592 641 584 678 941 1050 974 848 772 974 1021 1068 1061 1107 1395 538 668 1103 753 556 31 1 5 29 57 127 245 265 334 601 691 620 556 809 546 956 1004 978 909 1011 1164 1117 1350 1454 1371 1410 1533 1601 1614 1612 1757 1856 1880 1962 2033 2024 2039
0 0 0 0 0 0 0 0 0 0 0 0 0 0 0 0 0 0 167 227 194 218 130 202 157 188 179 309 447 438 569 469 497 479 747 962 713 608 612 938 974 980 897 1273 984 1375 1351 1012 911 844 10 12 22 62 123 298 310 266 457 711 676 703 893 782 885 1065 1061 993 978 1103 1138 1144 1366 1472 1424 1466 1560 1756 1748 1834 1861 1877 2032 2140 2111 2040
0 0 0 0 0 0 0 0 0 0 0 9 2 0 0 1 0 0 26 168 42 61 134 94 51 200 180 286 332 542 423 341 404 468 668 746 759 587 635 852 1064 1077 964 1121 1016 1148 1070 1278 933 659 546 36 2 78 106 306 457 346 385 659 696 764 973 878 847 1124 1154 1143 1082 1102 1137 1117 1272 1487 1531 1476 1542 1798 1825 1869 1920 1918 1978 2171 2241 2274
0 0 0 0 0 0 0 0 10 0 0 15 14 14 2 0 0 0 0 219 18 132 140 51 68 286 224 198 377 436 359 265 386 447 521 395 704 640 610 723 927 1001 1115 1299 1191 1132 1295 1319 891 850 779 692 262 32 147 377 513 512 514 769 715 730 1040 1011 854 1220 1264 1297 1289 1282 1306 1248 1239 1486 1615 1577 1539 1705 1917 1886 2005 1990 1997 2099 2240 2364
0 0 0 0 0 0 0 0 0 0 0 0 11 19 8 2 0 0 0 26 67 121 90 3 0 30 82 84 480 476 338 294 322 326 496 482 450 623 777 622 611 808 984 1180 1174 1272 1704 1269 1130 1235 1330 1204 1063 1002 343 522 607 604 598 854 885 708 978 1271 978 1125 1333 1412 1435 1485 1492 1488 1419 1496 1674 1702 1626 1579 1803 2011 2064 2174 2158 2170 2221 2293
0 0 0 0 0 0 6 0 0 0 2 0 0 10 2 0 0 0 0 0 1 24 11 0 0 38 21 150 425 441 347 382 327 344 274 187 280 506 454 551 585 672 742 957 1174 1522 1507 1220 1357 1492 1340 980 892 921 570 640 729 792 725 956 1115 865 973 1388 1232 1089 1364 1510 1545 1585 1606 1620 1637 1575 1678 1804 1772 1684 1593 1740 1983 2065 2144 2263 2329 2363
0 0 5 0 0 6 6 4 0 0 0 0 9 13 0 0 0 0 0 0 0 23 13 1 3 16 77 235 389 335 327 308 255 208 269 265 412 467 615 698 608 623 571 745 968 1383 1445 1449 1600 1720 1546 1288 1187 1159 1197 1187 1177 1176 990 1099 1332 1128 1152 1480 1553 1354 1367 1566 1652 1675 1676 1687 1708 1700 1692 1796 1862 1832 1756 1639 1608 1681 1750 1893 2075 2228
611 1 7 29 5 12 6 10 0 19 5 0 0 2 0 2 0 0 0 99 2 15 6 120 174 50 43 169 292 243 173 0 33 153 0 324 368 451 502 528 576 593 603 668 920 1017 1119 1254 1166 1133 1209 1318 1274 1229 1333 1434 1489 1472 1351 1384 1531 1418 1340 1509 1681 1799 1754 1700 1716 1712 1737 1771 1763 1774 1729 1744 1836 1890 1839 1788 1731 1678 1660 1683 1692 1720
11 12 18 37 28 28 28 25 22 16 19 6 0 0 0 0 0 0 54 221 180 60 0 0 33 95 147 172 237 0 0 0 0 13 0 0 225 295 330 381 341 503 665 721 950 1058 1098 1078 1098 1101 1055 1023 1025 1042 1276 1456 1470 1465 1420 1381 1498 1502 1416 1487 1659 1845 1948 1938 1922 1816 1733 1720 1793 1809 1813 1742 1736 1793 1850 1828 1782 1735 1694 1660 1611 1505
10 21 15 37 25 21 12 12 20 22 34 10 0 0 24 68 160 204 260 59 173 107 110 21 93 68 198 156 93 134 0 136 23 13 44 2 1 21 15 367 336 378 664 850 924 916 1118 1042 1034 1110 1105 1056 982 918 1052 1418 1584 1588 1547 1479 1477 1509 1481 1512 1626 1819 1998 2047 2054 2096 2039 1959 1866 1818 1801 1763 1724 1720 1731 1739 1739 1728 1694 1654 1635 1538
25 36 26 38 28 25 18 12 12 20 7 0 0 0 136 51 0 0 204 128 25 167 151 88 138 262 150 255 182 122 0 132 106 12 42 55 58 54 2 107 237 356 445 708 860 874 1000 998 996 969 1042 1132 1108 994 915 959 1221 1596 1732 1711 1570 1556 1642 1553 1597 1732 1863 1951 1979 1968 1951 1839 2031 2102 2069 1903 1697 1738 1758 1761 1732 1684 1638 1604 1615 1579
36 44 31 42 36 30 26 26 33 11 2 7 0 0 124 77 81 176 131 105 142 119 198 98 156 171 178 236 246 132 0 17 93 10 30 37 60 71 70 0 0 175 300 613 874 1012 987 999 904 780 690 805 1056 1084 1063 1021 1039 899 1172 1297 1608 1704 1658 1677 1716 1724 1742 1725 1796 1729 1764 1878 1953 2015 1971 2046 1978 1752 1671 1686 1708 1702 1649 1598 1575 1534
65 59 34 23 41 36 29 26 21 13 11 10 3 39 0 124 233 190 190 145 246 46 19 232 241 184 249 169 166 188 22 0 0 14 50 62 87 100 91 110 122 76 188 385 687 898 915 973 855 789 797 847 967 1067 1159 1067 998 954 804 783 810 974 1280 1191 1367 1543 1818 1746 1572 1478 1364 1374 1713 1980 1876 1781 1918 1903 1790 1649 1570 1537 1521 1484 1452 1423
38 62 33 24 30 42 34 26 19 14 16 49 182 159 56 36 245 192 218 280 271 193 99 215 241 223 236 172 131 130 52 0 39 1 29 40 141 132 125 126 128 157 184 126 421 581 637 664 749 608 826 820 1058 1060 1043 1082 994 912 857 810 845 866 808 770 735 822 949 974 1040 1128 1160 1169 1337 1589 1650 1732 1883 1911 1791 1748 1634 1448 1333 1258 1190 1208
8 51 42 46 45 48 52 33 20 26 109 195 292 329 303 311 323 305 322 405 321 262 321 314 280 279 179 126 93 117 114 83 2 61 10 9 82 130 170 138 138 138 141 171 66 398 423 286 294 435 428 644 768 848 928 1080 1042 978 970 983 970 1021 1092 1004 926 843 917 930 899 1100 1235 1212 1347 1483 1505 1569 1714 1848 1776 1572 1575 1502 1372 1224 1079 981
15 16 26 30 32 32 32 17 16 42 105 118 137 246 329 381 388 451 421 328 348 410 347 342 300 284 242 195 184 156 58 3 32 40 1 0 6 134 189 187 202 132 114 164 182 39 144 110 221 340 334 228 288 272 230 588 868 844 926 983 1022 1081 1086 1044 990 971 1038 1002 1183 1167 1218 1204 1127 1245 1327 1308 1272 1287 1369 1339 1237 1389 1476 1392 1170 953
10 2 5 15 23 20 17 14 8 6 7 8 9 12 107 366 382 329 308 371 380 466 432 362 377 377 312 250 212 136 72 27 6 8 1 0 0 28 154 227 259 254 201 177 202 283 404 406 363 247 310 289 341 382 317 184 227 318 694 742 733 859 883 904 968 980 1086 1118 1114 1352 1240 1241 1252 1201 1264 1274 1280 1396 1624 1461 1479 1136 1093 1332 1308 1039
8 0 0 0 2 0 1 7 10 3 1 4 5 5 70 546 433 422 422 469 489 485 494 498 448 394 296 232 222 222 77 36 6 0 0 0 0 0 0 89 179 142 114 174 153 177 244 294 339 304 259 243 264 305 300 305 264 0 312 479 675 832 866 910 962 961 649 870 938 982 1036 1080 1099 1130 1128 1098 1142 1240 1502 1655 1636 1560 1461 1324 1281 1213
8 12 1 0 0 0 0 2 4 6 3 0 0 0 328 552 413 350 444 410 536 487 450 466 444 369 323 268 249 271 209 89 0 0 0 0 0 0 0 0 79 74 100 110 106 86 123 153 190 234 246 250 230 252 272 314 282 314 358 401 462 536 625 634 700 679 732 645 694 839 839 897 952 916 1052 1062 965 1079 1141 1202 1281 1279 1268 1251 1294 1398
17 6 5 0 4 0 0 10 24 10 4 98 327 327 580 575 408 386 465 488 508 487 450 429 394 328 290 245 228 225 200 135 0 0 0 0 0 0 0 0 0 74 113 64 79 14 119 142 144 134 170 193 186 205 215 204 180 202 292 351 370 396 377 391 407 430 249 332 424 508 709 842 806 814 841 930 866 954 883 1011 1073 1210 1295 1235 1234 1267
10 9 2 4 1 2 2 8 9 20 31 310 549 648 758 592 468 459 485 484 503 473 402 410 382 331 290 305 240 206 163 133 0 0 0 0 0 0 0 0 0 0 0 0 0 0 0 0 0 0 0 78 88 79 2 39 30 66 0 0 102 130 210 253 304 354 389 396 344 361 479 541 629 655 624 607 660 754 824 926 976 1077 1124 1201 1176 1141
0 11 10 0 0 11 22 19 8 23 28 200 400 512 555 669 532 460 390 368 392 477 426 419 417 394 330 274 214 185 169 152 102 0 0 0 0 0 0 0 0 0 0 0 0 0 0 0 0 0 0 0 0 0 0 0 0 0 0 0 0 0 0 0 141 197 246 267 250 249 255 271 309 330 284 318 393 404 515 637 855 929 955 1013 1046 1015
0 1 14 17 2 0 6 44 31 4 1 109 248 549 697 784 650 402 379 424 401 527 503 447 424 359 338 289 238 191 194 175 138 100 0 0 0 0 0 0 0 0 0 0 0 0 0 0 0 0 0 0 0 0 0 0 0 0 0 0 0 0 0 0 0 0 20 135 174 200 236 241 248 291 305 354 432 374 334 402 605 759 772 794 811 809
0 0 5 6 9 3 15 24 42 0 6 0 0 227 685 844 649 422 312 420 395 524 457 397 393 343 293 255 224 194 208 228 204 150 103 12 6 0 0 0 0 0 0 0 0 0 0 0 0 0 0 0 0 0 0 0 0 0 0 0 0 0 0 0 0 0 0 0 0 0 5 100 170 196 200 248 316 331 404 425 458 525 567 572 610 639
0 0 0 0 0 34 1 14 17 16 8 0 52 365 578 692 555 381 207 371 450 514 450 408 434 369 344 314 303 323 306 304 244 72 0 0 0 0 0 0 0 0 0 0 0 0 0 0 0 0 0 0 0 0 0 0 0 0 0 0 0 0 0 0 0 0 0 0 0 0 0 0 0 0 0 0 56 117 168 277 371 406 415 446 472 463
0 0 0 0 0 0 0 0 5 8 0 0 3 309 662 396 0 0 0 272 448 530 470 432 419 386 359 377 381 310 218 150 22 100 158 9 0 0 0 0 0 0 0 0 0 0 0 0 0 0 0 0 0 0 0 0 0 0 0 0 0 0 0 0 0 0 0 0 0 0 0 0 0 0 0 0 0 0 0 0 112 194 280 345 366 364
0 0 0 0 0 0 0 0 0 0 0 0 0 247 206 0 0 0 0 360 504 532 506 463 447 427 363 349 335 319 216 176 215 229 209 14 0 0 0 0 0 0 0 0 0 0 0 0 0 0 0 0 0 0 0 0 0 0 0 0 0 0 0 0 0 0 0 0 0 0 0 0 0 0 0 0 0 0 0 0 0 0 7 26 130 167
0 0 0 0 0 0 0 0 0 0 0 0 0 0 0 0 0 0 47 462 552 582 592 600 541 504 394 380 362 293 251 228 227 210 118 0 0 0 0 0 0 0 0 0 0 0 0 0 0 0 0 0 0 0 0 0 0 0 0 0 0 0 0 0 0 0 0 0 0 0 0 0 0 0 0 0 0 0 0 0 0 0 0 0 0 0
0 0 0 2 0 0 0 0 0 0 0 0 0 0 0 0 0 0 0 431 546 618 626 634 580 455 377 348 321 268 235 200 182 38 0 0 0 0 0 0 0 0 0 0 0 0 0 0 0 0 0 0 0 0 0 0 0 0 0 0 0 0 0 0 0 0 0 0 0 0 0 0 0 0 0 0 0 0 0 0 0 0 0 0 0 0
0 0 0 0 0 0 0 0 0 0 0 0 0 0 0 0 0 0 0 53 476 633 662 648 549 495 450 438 420 356 272 205 0 0 0 0 0 0 0 0 0 0 0 0 0 0 0 0 0 0 0 0 0 0 0 0 0 0 0 0 0 0 0 0 0 0 0 0 0 0 0 0 0 0 0 0 0 0 0 0 0 0 0 0 0 0
0 0 0 0 0 0 24 0 10 10 0 0 0 0 0 0 0 0 0 174 265 377 575 655 540 547 568 555 528 461 398 311 64 0 0 0 0 0 0 0 0 0 0 0 0 0 0 0 0 0 0 0 0 0 0 0 0 0 0 0 0 0 0 0 0 0 0 0 0 0 0 0 0 0 0 0 0 0 0 0 0 0 0 0 0 0
0 0 0 0 0 0 0 0 0 0 0 0 0 0 0 0 0 0 0 0 0 131 372 497 602 619 653 642 584 531 446 345 272 230 0 0 0 0 0 0 0 0 0 0 0 0 0 0 0 0 0 0 0 0 0 0 0 0 0 0 0 0 0 0 0 0 0 0 0 0 0 0 0 0 0 0 0 0 0 0 0 0 0 0 0 0
0 13 0 0 0 0 0 0 0 0 0 0 0 0 0 0 0 0 0 0 0 0 0 65 311 452 506 547 529 480 425 362 320 310 280 234 45 0 0 0 0 0 0 0 0 0 0 0 0 0 0 0 0 0 0 0 0 0 0 0 0 0 0 0 0 0 0 0 0 0 0 0 0 0 0 0 0 0 0 0 0 0 0 0 0 0
0 0 0 0 0 0 1 4 0 13 14 0 0 0 0 0 0 0 0 0 0 0 0 0 0 0 0 69 266 287 281 229 108 206 208 105 0 0 0 0 0 0 0 0 0 0 0 0 0 0 0 0 0 0 0 0 0 0 0 0 0 0 0 0 0 0 0 0 0 0 0 0 0 0 0 0 0 0 0 0 0 0 0 0 0 0
0 0 0 0 0 0 0 0 0 0 0 0 0 0 0 0 0 0 0 0 0 0 0 0 0 0 0 0 0 0 0 0 0 0 0 0 0 0 0 0 0 0 0 0 0 0 0 0 0 0 0 0 0 0 0 0 0 0 0 0 0 0 0 0 0 0 0 1 0 1 10 0 0 0 0 0 0 0 0 0 0 0 0 0 0 0
Wind_Speed
nan nan nan nan nan nan nan nan nan nan nan nan nan 27 23 25 30 27 25 17 16 13 13 16 18 15 10 8 8 18 20 nan nan nan nan nan nan nan nan nan nan nan nan nan nan nan 8 9 10 10 10 11 11 11 9 9 9 8 7 7 6 6 4 3 3 4 4 6 7 10 11 11 11 10 10 11 13 13 14 15 15 15 15 17 17 17
nan nan nan nan nan nan nan nan nan nan nan nan 25 23 27 30 30 27 21 16 15 11 11 15 16 15 10 16 21 18 18 nan 17 nan nan nan nan nan nan nan nan nan nan nan nan nan 9 10 10 11 12 13 11 12 9 7 7 8 7 6 7 6 5 4 3 4 5 8 9 9 12 12 11 10 9 10 12 13 14 15 15 16 16 16 17 17
nan nan nan nan nan nan nan nan nan nan nan nan nan 24 26 28 30 30 25 24 20 18 11 10 13 11 18 14 23 19 18 22 27 21 nan nan nan nan nan nan nan nan nan nan nan nan nan 8 8 11 12 12 10 8 7 8 8 8 8 8 7 7 6 6 5 4 5 8 9 10 12 12 12 14 12 11 11 12 14 16 16 16 16 16 17 17
nan nan nan nan nan nan nan nan nan nan nan nan nan 25 19 20 23 23 26 26 19 17 14 13 15 15 16 19 23 21 17 19 22 24 22 nan nan nan nan nan nan nan nan nan nan nan nan 8 9 11 11 12 13 12 11 10 7 8 8 8 7 7 7 6 6 6 7 6 8 11 11 12 12 11 12 12 12 13 13 15 16 17 16 16 16 16
nan nan nan nan nan nan nan nan nan nan nan nan nan nan nan 20 20 26 23 25 22 26 22 23 18 16 16 15 15 19 17 17 21 28 21 19 20 19 nan nan nan nan nan nan nan nan nan 10 9 9 11 12 12 11 10 8 7 8 7 6 6 6 7 6 6 6 7 7 9 9 11 12 12 12 11 10 12 12 13 15 16 16 16 16 16 16
nan nan nan nan nan nan nan nan nan nan nan nan nan nan nan 18 26 32 26 23 23 19 16 18 11 9 13 13 14 16 18 15 22 26 23 21 22 20 18 nan nan nan nan nan nan nan nan 9 11 11 11 11 12 11 10 8 7 8 8 7 7 7 8 6 5 6 6 6 5 5 7 9 11 12 11 10 10 10 11 13 15 17 16 16 17 16
nan nan nan nan nan nan nan nan nan nan nan nan nan nan nan 21 29 27 21 21 17 13 11 12 nan 12 15 10 12 14 14 16 20 25 26 24 23 22 20 19 nan nan nan nan nan nan nan 9 nan 11 10 10 11 11 11 11 9 9 8 7 6 5 6 6 6 6 6 7 8 6 7 9 10 12 15 14 12 10 11 12 13 15 16 17 16 16
nan nan nan nan nan nan nan nan nan nan nan nan nan nan nan 23 24 20 19 17 16 16 16 13 nan nan nan 13 14 12 14 18 18 23 25 24 23 21 22 22 19 nan nan nan nan nan nan 7 7 8 9 10 11 12 13 13 13 10 8 7 6 6 5 6 5 5 5 6 8 9 9 10 10 12 14 13 12 12 12 12 13 14 15 16 16 15
nan nan nan nan nan nan nan nan nan nan nan nan nan nan 15 14 18 18 19 19 14 14 11 8 nan nan nan nan 9 11 13 15 15 18 21 22 21 20 21 22 22 19 nan nan nan nan nan nan 7 8 9 11 13 13 13 12 12 11 10 7 7 6 6 6 6 5 6 5 6 8 9 10 12 12 14 14 13 12 12 12 14 13 14 15 16 15
nan nan nan nan nan nan nan nan nan nan nan nan 32 34 32 32 25 20 23 23 16 16 10 8 10 nan nan nan nan nan 13 9 13 18 23 22 21 20 19 20 22 21 20 nan nan nan nan nan nan 7 9 10 10 12 13 14 14 13 13 10 8 6 7 7 8 8 8 6 6 8 10 9 10 12 14 14 13 13 13 13 13 14 14 14 14 15
nan nan nan nan nan nan nan nan nan nan nan 35 38 35 35 32 25 25 27 26 23 nan nan nan 11 nan nan nan nan nan 8 5 11 20 26 23 23 23 21 21 20 22 22 nan nan nan nan nan nan nan nan 9 12 14 13 13 13 13 13 12 9 7 7 8 8 9 8 8 6 6 8 8 8 9 10 11 14 14 14 13 14 14 14 14 14 13
nan nan nan nan nan nan nan nan nan nan 32 35 34 34 40 40 35 33 32 nan nan nan nan nan nan nan nan nan nan nan 15 9 4 7 15 20 21 20 19 19 20 22 23 23 nan nan nan nan nan nan nan 12 11 12 12 12 13 12 12 12 10 10 9 9 9 10 9 8 7 7 7 8 8 7 9 9 10 12 12 12 13 14 14 15 14 14
nan nan nan nan nan nan nan nan nan nan 35 42 38 38 35 nan 36 32 34 nan nan nan nan nan nan nan nan nan 16 nan nan 10 5 3 6 13 17 19 21 20 23 25 25 26 nan nan nan nan nan nan nan nan nan 10 9 9 10 11 11 11 10 10 10 9 10 10 10 10 9 8 8 10 10 10 9 9 10 11 11 11 12 12 12 12 13 13
nan nan nan nan nan nan nan nan nan nan nan 40 37 34 35 33 nan 29 nan nan nan 25 nan 18 23 22 21 18 21 17 12 13 8 5 14 18 17 19 23 26 26 26 24 23 20 nan nan nan nan nan nan nan nan nan 9 9 10 10 10 10 9 8 9 9 9 10 10 11 11 10 9 10 11 11 11 11 10 11 12 11 11 11 11 10 10 10
nan nan nan nan nan nan nan nan nan nan nan 32 36 nan nan 24 nan nan nan nan nan 23 25 26 22 nan nan 20 24 21 19 18 16 9 10 9 15 21 29 30 30 27 24 22 21 nan nan nan nan nan nan nan nan nan 10 10 10 10 10 9 8 8 9 8 7 10 10 11 12 13 11 11 12 11 11 11 11 10 11 12 11 12 12 11 11 10
nan nan nan nan nan nan nan nan nan nan nan nan 40 44 36 nan nan nan nan nan 20 25 27 28 26 24 22 22 24 24 21 21 17 15 13 12 15 19 25 28 30 28 24 22 22 21 21 19 nan nan nan nan nan nan 10 10 11 10 9 8 7 6 7 7 7 8 9 10 13 14 13 13 13 14 14 14 13 12 11 11 10 11 11 11 11 11
nan nan nan nan nan nan nan nan nan nan nan nan nan 35 nan nan nan nan 31 30 30 32 30 28 25 24 23 20 24 26 25 22 20 19 16 14 14 17 19 25 29 29 26 24 24 24 24 25 22 nan nan nan nan nan 10 10 10 8 9 9 8 8 8 6 6 6 9 10 12 14 14 14 14 14 14 13 12 11 11 11 11 11 11 11 11 11
nan nan nan nan nan nan nan nan nan nan nan nan nan nan nan nan nan nan 28 30 32 31 31 29 26 24 23 21 21 21 24 25 23 21 16 17 16 13 15 24 28 29 27 26 28 27 25 25 25 25 nan nan nan nan 11 11 11 10 9 8 7 8 7 7 7 7 9 10 11 13 15 15 15 14 14 14 13 13 12 12 11 12 11 11 11 11
nan nan nan nan nan nan nan nan nan nan nan nan nan nan nan nan nan nan nan 30 nan nan 30 nan nan 27 21 21 19 16 20 23 23 22 17 14 16 13 13 22 31 32 31 31 30 27 26 26 27 27 22 nan nan nan 12 13 12 12 11 9 8 6 5 6 7 8 10 10 11 13 13 15 15 15 14 15 15 14 12 11 10 9 9 11 12 12
nan nan nan nan nan nan nan nan nan nan nan nan nan nan nan nan nan nan nan 31 nan 26 28 nan nan 26 22 21 21 18 22 22 21 20 22 22 19 15 13 19 27 31 31 30 28 27 27 27 26 26 23 19 15 nan 14 15 16 13 11 11 9 10 11 10 8 8 8 9 10 12 14 14 14 14 14 14 14 14 13 12 11 10 10 9 11 11
nan nan nan nan nan nan nan nan nan nan nan nan nan nan nan nan nan nan nan nan nan 25 nan nan nan nan nan nan 24 20 22 22 20 21 22 22 22 19 17 19 26 32 32 30 29 29 29 27 28 28 27 25 24 20 17 17 16 16 16 13 13 11 11 11 10 11 10 11 10 11 10 11 13 14 15 14 14 12 13 13 13 11 10 11 10 11
nan nan nan nan nan nan nan nan nan nan nan nan nan nan nan nan nan nan nan nan nan nan nan nan nan nan nan 27 26 25 24 23 22 24 23 23 21 20 18 18 23 29 30 31 31 32 30 28 28 30 30 29 27 24 19 17 19 19 14 12 12 14 13 12 12 12 13 13 11 10 10 11 13 14 15 15 14 13 13 13 14 13 13 11 9 11
nan nan nan nan nan nan nan nan nan nan nan nan nan nan nan nan nan nan nan nan nan nan nan nan nan nan nan 24 26 24 22 23 24 24 24 21 19 20 23 24 24 29 31 33 35 33 31 31 33 34 34 33 32 30 26 21 17 15 15 16 17 16 17 17 16 16 16 15 15 13 14 14 14 14 14 13 13 12 12 13 13 14 13 11 10 11
38 nan nan nan nan nan nan nan nan nan nan nan nan nan nan nan nan nan nan nan nan nan nan 36 33 nan nan 23 23 22 22 nan nan 23 nan 20 18 20 23 25 25 26 29 35 39 38 35 34 35 36 35 33 33 32 30 26 23 21 21 21 21 21 22 23 24 23 21 20 19 19 18 16 15 14 14 13 14 12 12 12 12 13 12 11 11 10
nan nan nan nan nan nan nan nan nan nan nan nan nan nan nan nan nan nan nan 44 44 nan nan nan nan nan 27 27 25 nan nan nan nan nan nan nan 21 21 21 23 25 27 29 35 38 38 39 38 38 37 35 33 32 31 31 30 29 27 24 21 21 23 24 24 25 26 27 26 25 23 21 19 19 16 15 14 15 14 13 12 11 13 12 12 11 11
nan nan nan nan nan nan nan nan nan nan nan nan nan nan nan nan 47 48 47 nan 44 39 42 nan nan nan 39 35 nan 31 nan 25 nan nan nan nan nan nan nan 23 23 24 25 29 32 36 37 36 38 39 38 37 36 36 35 34 32 28 26 26 26 25 25 26 26 27 27 26 26 24 23 23 21 19 17 17 17 16 15 13 12 12 13 14 13 13
nan nan nan nan nan nan nan nan nan nan nan nan nan nan 41 nan nan nan 49 48 nan 40 45 nan 38 42 38 36 37 34 nan 27 24 nan nan nan nan nan nan 24 23 24 24 26 28 28 30 35 39 39 40 40 40 39 37 35 32 30 29 30 30 28 28 27 28 30 30 27 22 19 17 16 17 20 20 18 18 19 18 16 14 12 12 14 15 14
nan nan nan nan nan nan nan nan nan nan nan nan nan nan 41 nan nan 46 43 41 43 51 44 nan 40 43 38 37 37 34 nan nan nan nan nan nan nan nan nan nan nan 27 25 23 26 27 28 29 31 33 36 39 41 39 37 36 36 35 34 32 32 34 33 31 29 29 28 25 24 24 22 18 18 21 21 20 19 17 17 17 17 17 16 16 15 14
nan nan nan nan nan nan nan nan nan nan nan nan nan nan nan 39 42 43 44 42 43 nan nan 38 39 42 39 38 38 35 nan nan nan nan nan nan nan 27 nan 30 30 nan 27 26 25 26 28 28 26 28 29 31 35 38 40 40 40 40 40 38 35 33 31 31 32 28 26 25 24 25 23 21 22 26 25 23 20 18 17 18 20 21 20 19 17 16
nan nan nan nan nan nan nan nan nan nan nan nan 49 47 nan nan 43 44 46 45 46 46 nan 45 45 43 40 39 37 35 nan nan nan nan nan nan 30 28 30 32 32 31 30 29 29 26 27 27 27 27 26 25 27 30 33 36 39 41 42 41 40 39 38 37 37 33 30 28 27 27 26 25 25 24 24 23 22 20 20 21 23 23 22 21 21 20
nan nan nan nan nan nan nan nan nan nan 45 49 51 53 51 50 50 47 46 49 55 54 50 49 49 45 39 38 nan 38 37 nan nan nan nan nan nan 31 31 32 32 32 30 30 nan 28 27 28 29 28 28 26 26 28 30 30 32 33 36 38 40 40 39 40 40 38 35 34 33 31 29 28 26 25 24 25 25 24 24 23 24 25 24 23 23 23
nan nan nan nan nan nan nan nan nan nan 42 47 51 53 50 48 48 40 43 38 45 45 48 49 47 40 36 37 37 36 nan nan nan nan nan nan nan 32 31 30 32 32 30 30 30 nan 29 30 29 29 29 27 25 28 29 28 27 27 28 31 34 35 35 35 36 36 34 35 35 36 36 34 31 28 27 26 25 26 26 25 24 24 24 25 25 25
nan nan nan nan nan nan nan nan nan nan nan nan nan nan 45 43 43 44 43 41 41 48 49 41 35 40 39 38 37 32 nan nan nan nan nan nan nan nan 30 30 30 30 30 30 31 30 30 31 32 32 31 28 26 27 28 28 27 27 25 27 26 27 31 32 32 33 33 32 34 36 36 36 35 33 33 32 29 28 28 27 26 26 27 27 28 29
nan nan nan nan nan nan nan nan nan nan nan nan nan nan nan 43 43 46 43 43 41 43 42 45 47 47 45 42 39 33 nan nan nan nan nan nan nan nan nan nan 27 27 28 29 29 29 28 30 31 32 32 32 31 32 31 31 32 nan 28 27 26 28 28 29 29 29 29 29 29 30 30 32 33 32 32 32 34 34 34 32 31 28 25 26 27 29
nan nan nan nan nan nan nan nan nan nan nan nan nan nan 44 48 54 53 50 47 42 47 53 52 48 46 44 44 42 38 35 nan nan nan nan nan nan nan nan nan nan nan nan 30 30 nan 29 30 32 32 33 33 32 32 33 32 32 31 30 28 30 30 30 30 30 28 25 25 24 24 24 26 28 29 30 30 32 34 35 34 33 32 29 27 27 28
nan nan nan nan nan nan nan nan nan nan nan nan 35 42 46 50 51 54 50 46 44 43 48 49 44 44 44 44 43 41 42 42 nan nan nan nan nan nan nan nan nan nan 30 nan nan nan 32 32 32 32 31 30 33 32 32 31 30 32 32 31 33 34 35 35 36 31 25 25 24 24 21 21 23 23 25 26 27 29 30 29 30 31 32 32 33 33
nan nan nan nan nan nan nan nan nan nan nan 29 29 32 34 35 38 42 44 41 40 40 43 48 47 46 47 45 45 45 45 45 nan nan nan nan nan nan nan nan nan nan nan nan nan nan nan nan nan nan nan nan nan nan nan nan nan nan nan nan 35 36 37 37 36 32 27 26 27 26 24 24 25 26 26 25 23 24 25 25 25 27 29 32 33 34
nan nan nan nan nan nan nan nan nan nan nan 29 27 28 31 30 36 39 46 41 41 42 41 49 49 48 49 48 48 47 48 48 43 nan nan nan nan nan nan nan nan nan nan nan nan nan nan nan nan nan nan nan nan nan nan nan nan nan nan nan nan nan nan nan 34 31 29 27 26 26 27 28 30 31 32 30 26 22 21 21 23 25 27 29 30 32
nan nan nan nan nan nan nan nan nan nan nan 31 32 35 36 37 39 38 44 38 37 37 38 46 49 48 48 47 47 48 48 46 42 39 nan nan nan nan nan nan nan nan nan nan nan nan nan nan nan nan nan nan nan nan nan nan nan nan nan nan nan nan nan nan nan nan nan 28 27 28 28 30 31 32 33 32 27 24 25 24 24 23 25 27 29 31
nan nan nan nan nan nan nan nan nan nan nan nan nan 37 36 38 38 43 42 33 32 33 36 42 49 49 48 46 45 45 46 47 41 39 39 nan nan nan nan nan nan nan nan nan nan nan nan nan nan nan nan nan nan nan nan nan nan nan nan nan nan nan nan nan nan nan nan nan nan nan nan 31 32 31 32 32 30 29 29 28 27 27 27 28 28 29
nan nan nan nan nan nan nan nan nan nan nan nan nan 34 35 35 41 42 37 31 35 35 37 39 44 46 46 43 38 40 38 43 44 nan nan nan nan nan nan nan nan nan nan nan nan nan nan nan nan nan nan nan nan nan nan nan nan nan nan nan nan nan nan nan nan nan nan nan nan nan nan nan nan nan nan nan nan 30 31 31 30 29 32 33 31 31
nan nan nan nan nan nan nan nan nan nan nan nan nan 32 31 35 nan nan nan 38 39 37 38 37 38 39 40 38 35 36 39 43 nan 41 42 nan nan nan nan nan nan nan nan nan nan nan nan nan nan nan nan nan nan nan nan nan nan nan nan nan nan nan nan nan nan nan nan nan nan nan nan nan nan nan nan nan nan nan nan nan 33 32 33 35 34 32
nan nan nan nan nan nan nan nan nan nan nan nan nan 34 37 nan nan nan nan 40 39 39 39 35 35 36 40 42 40 40 42 41 39 37 37 nan nan nan nan nan nan nan nan nan nan nan nan nan nan nan nan nan nan nan nan nan nan nan nan nan nan nan nan nan nan nan nan nan nan nan nan nan nan nan nan nan nan nan nan nan nan nan nan nan 36 34
nan nan nan nan nan nan nan nan nan nan nan nan nan nan nan nan nan nan nan 43 42 41 40 40 39 39 41 44 45 45 45 43 41 41 40 nan nan nan nan nan nan nan nan nan nan nan nan nan nan nan nan nan nan nan nan nan nan nan nan nan nan nan nan nan nan nan nan nan nan nan nan nan nan nan nan nan nan nan nan nan nan nan nan nan nan nan
nan nan nan nan nan nan nan nan nan nan nan nan nan nan nan nan nan nan nan 39 40 39 38 41 40 40 42 46 47 49 46 43 42 nan nan nan nan nan nan nan nan nan nan nan nan nan nan nan nan nan nan nan nan nan nan nan nan nan nan nan nan nan nan nan nan nan nan nan nan nan nan nan nan nan nan nan nan nan nan nan nan nan nan nan nan nan
nan nan nan nan nan nan nan nan nan nan nan nan nan nan nan nan nan nan nan nan 35 35 33 36 36 38 39 44 47 43 45 44 nan nan nan nan nan nan nan nan nan nan nan nan nan nan nan nan nan nan nan nan nan nan nan nan nan nan nan nan nan nan nan nan nan nan nan nan nan nan nan nan nan nan nan nan nan nan nan nan nan nan nan nan nan nan
nan nan nan nan nan nan nan nan nan nan nan nan nan nan nan nan nan nan nan 35 33 35 36 35 38 37 37 37 41 41 42 42 nan nan nan nan nan nan nan nan nan nan nan nan nan nan nan nan nan nan nan nan nan nan nan nan nan nan nan nan nan nan nan nan nan nan nan nan nan nan nan nan nan nan nan nan nan nan nan nan nan nan nan nan nan nan
nan nan nan nan nan nan nan nan nan nan nan nan nan nan nan nan nan nan nan nan nan 35 37 37 40 41 39 39 39 41 40 40 42 41 nan nan nan nan nan nan nan nan nan nan nan nan nan nan nan nan nan nan nan nan nan nan nan nan nan nan nan nan nan nan nan nan nan nan nan nan nan nan nan nan nan nan nan nan nan nan nan nan nan nan nan nan
nan nan nan nan nan nan nan nan nan nan nan nan nan nan nan nan nan nan nan nan nan nan nan nan 39 40 40 41 41 42 43 41 42 42 42 40 nan nan nan nan nan nan nan nan nan nan nan nan nan nan nan nan nan nan nan nan nan nan nan nan nan nan nan nan nan nan nan nan nan nan nan nan nan nan nan nan nan nan nan nan nan nan nan nan nan nan
nan nan nan nan nan nan nan nan nan nan nan nan nan nan nan nan nan nan nan nan nan nan nan nan nan nan nan nan 43 43 44 42 41 43 43 40 nan nan nan nan nan nan nan nan nan nan nan nan nan nan nan nan nan nan nan nan nan nan nan nan nan nan nan nan nan nan nan nan nan nan nan nan nan nan nan nan nan nan nan nan nan nan nan nan nan nan
nan nan nan nan nan nan nan nan nan nan nan nan nan nan nan nan nan nan nan nan nan nan nan nan nan nan nan nan nan nan nan nan nan nan nan nan nan nan nan nan nan nan nan nan nan nan nan nan nan nan nan nan nan nan nan nan nan nan nan nan nan nan nan nan nan nan nan nan nan nan nan nan nan nan nan nan nan nan nan nan nan nan nan nan nan nan
Wind_Direction
nan nan nan nan nan nan nan nan nan nan nan nan nan 203 204 212 209 210 209 218 209 208 193 188 201 222 244 234 225 213 198 nan nan nan nan nan nan nan nan nan nan nan nan nan nan nan 156 152 148 156 166 163 161 166 169 165 159 155 146 147 140 139 136 136 123 112 103 106 116 122 106 104 104 107 120 126 134 136 131 126 118 113 108 110 111 111
nan nan nan nan nan nan nan nan nan nan nan nan 207 211 207 210 212 208 214 233 213 221 210 201 219 197 235 228 225 229 194 nan 218 nan nan nan nan nan nan nan nan nan nan nan nan nan 169 160 154 163 165 165 168 162 164 158 158 158 160 149 149 154 140 131 118 112 114 115 101 98 98 109 105 105 105 116 125 134 140 134 126 119 116 116 116 118
nan nan nan nan nan nan nan nan nan nan nan nan nan 213 218 215 220 217 224 227 208 207 200 213 240 215 221 219 222 218 216 198 200 206 nan nan nan nan nan nan nan nan nan nan nan nan nan 164 164 166 160 153 151 156 152 161 175 169 164 160 159 155 147 137 137 133 117 125 116 113 109 104 113 118 118 119 126 139 145 141 134 127 124 123 124 123
nan nan nan nan nan nan nan nan nan nan nan nan nan 215 214 224 228 218 219 227 204 201 208 215 231 226 233 228 226 221 199 199 199 213 190 nan nan nan nan nan nan nan nan nan nan nan nan 172 173 168 158 154 161 164 170 172 180 175 168 167 167 157 150 141 134 126 129 126 126 131 117 115 115 115 119 123 130 135 145 141 139 134 130 128 128 129
nan nan nan nan nan nan nan nan nan nan nan nan nan nan nan 227 215 222 227 222 220 212 226 228 216 204 220 233 232 222 207 196 206 206 199 190 203 197 nan nan nan nan nan nan nan nan nan 178 177 169 158 163 164 162 166 174 181 176 174 173 174 165 150 143 138 136 143 155 152 141 133 128 138 135 127 127 124 123 131 142 143 135 137 135 134 134
nan nan nan nan nan nan nan nan nan nan nan nan nan nan nan 238 233 234 241 236 218 211 223 260 246 210 227 234 232 228 220 211 209 206 197 193 200 203 195 nan nan nan nan nan nan nan nan 181 176 175 171 163 163 162 160 170 184 191 188 185 181 177 163 151 147 147 142 130 125 124 119 119 126 122 119 111 107 116 123 126 139 144 141 140 140 139
nan nan nan nan nan nan nan nan nan nan nan nan nan nan nan 238 241 251 244 227 220 218 228 221 nan 214 221 236 238 235 229 228 208 204 201 199 198 198 193 192 nan nan nan nan nan nan nan 186 nan 176 172 164 161 158 166 173 181 195 201 190 183 180 165 159 159 154 151 144 135 122 114 117 116 114 119 126 126 125 128 137 136 139 141 141 140 140
nan nan nan nan nan nan nan nan nan nan nan nan nan nan nan 241 254 258 251 221 213 210 233 228 nan nan nan 220 233 240 234 235 216 204 204 199 196 196 188 189 200 nan nan nan nan nan nan 206 186 177 176 170 158 168 171 173 180 191 198 199 180 173 168 163 173 166 163 144 137 136 132 125 121 113 116 122 128 135 138 137 136 142 140 141 141 142
nan nan nan nan nan nan nan nan nan nan nan nan nan nan 228 249 246 247 233 219 216 240 234 213 nan nan nan nan 239 249 248 244 235 214 206 199 196 198 188 189 195 199 nan nan nan nan nan nan 195 190 189 176 179 179 173 172 176 182 191 198 190 175 167 168 179 180 174 166 138 136 137 133 129 126 124 128 136 136 138 139 141 142 144 145 146 147
nan nan nan nan nan nan nan nan nan nan nan nan 211 208 211 217 219 220 213 218 209 216 231 217 209 nan nan nan nan nan 216 246 248 225 212 201 197 200 193 187 194 196 197 nan nan nan nan nan nan 200 208 202 187 184 179 179 182 182 187 189 191 176 168 173 179 186 181 179 167 149 138 132 134 139 141 137 136 139 139 140 141 145 148 148 153 153
nan nan nan nan nan nan nan nan nan nan nan 211 218 217 212 215 217 206 212 211 208 nan nan nan 235 nan nan nan nan nan 216 234 250 227 217 204 197 198 198 191 193 196 195 nan nan nan nan nan nan nan nan 214 204 195 191 186 182 185 185 184 184 174 177 179 181 189 185 183 180 155 139 135 137 143 145 143 140 143 143 139 141 146 147 153 154 157
nan nan nan nan nan nan nan nan nan nan 203 219 206 214 213 202 203 204 206 nan nan nan nan nan nan nan nan nan nan nan 212 245 301 267 234 214 201 196 199 195 198 198 195 198 nan nan nan nan nan nan nan 225 218 206 199 192 190 188 185 184 182 180 182 182 185 190 185 186 182 174 159 147 143 152 152 140 135 133 134 137 138 145 153 152 158 159
nan nan nan nan nan nan nan nan nan nan 203 214 216 219 222 nan 207 201 204 nan nan nan nan nan nan nan nan nan 197 nan nan 215 276 289 242 230 218 206 209 207 205 198 197 200 nan nan nan nan nan nan nan nan nan 216 210 208 202 196 191 189 191 182 186 185 189 188 187 186 185 186 177 166 161 160 160 154 148 141 139 142 146 148 143 152 157 156
nan nan nan nan nan nan nan nan nan nan nan 217 218 218 216 212 nan 204 nan nan nan 197 nan 229 216 207 200 201 198 195 203 205 219 251 230 213 225 225 221 217 213 203 200 201 210 nan nan nan nan nan nan nan nan nan 218 217 213 204 198 196 198 189 193 196 195 190 190 184 186 191 189 183 175 167 167 165 159 151 149 151 147 144 143 145 145 154
nan nan nan nan nan nan nan nan nan nan nan 217 219 nan nan 221 nan nan nan nan nan 201 198 206 222 nan nan 200 191 196 207 208 202 212 247 229 230 228 226 222 214 207 202 206 209 nan nan nan nan nan nan nan nan nan 220 219 217 213 208 207 206 202 196 203 202 199 192 186 187 192 196 196 187 179 176 171 169 166 161 159 156 150 152 150 150 151
nan nan nan nan nan nan nan nan nan nan nan nan 213 213 216 nan nan nan nan nan 208 215 211 205 213 206 203 198 193 203 211 217 217 218 232 240 245 241 235 224 216 210 209 212 215 215 221 226 nan nan nan nan nan nan 223 227 224 218 212 212 214 219 216 210 210 205 200 192 191 192 196 198 194 188 188 183 178 173 169 169 163 158 158 155 162 162
nan nan nan nan nan nan nan nan nan nan nan nan nan 216 nan nan nan nan 210 210 216 212 210 209 212 209 203 202 202 205 220 224 227 228 232 236 243 251 242 227 219 216 215 216 217 212 216 219 218 nan nan nan nan nan 229 232 233 231 221 214 212 212 217 221 216 216 210 204 197 190 192 198 197 196 195 191 183 178 177 177 172 173 169 173 175 172
nan nan nan nan nan nan nan nan nan nan nan nan nan nan nan nan nan nan 216 206 210 216 212 208 206 205 212 202 204 204 224 222 225 229 238 238 246 255 240 228 220 216 217 216 216 210 210 215 219 217 nan nan nan nan 232 234 232 230 228 225 222 216 222 218 217 217 216 212 204 197 193 193 196 197 196 197 192 189 190 185 184 186 188 182 183 184
nan nan nan nan nan nan nan nan nan nan nan nan nan nan nan nan nan nan nan 215 nan nan 220 nan nan 204 203 206 206 207 225 220 218 220 235 251 250 258 251 234 221 215 214 216 215 211 208 215 220 222 223 nan nan nan 237 236 233 228 221 218 224 229 233 242 226 220 218 218 209 205 200 198 196 195 196 197 198 199 196 194 195 192 188 196 196 196
nan nan nan nan nan nan nan nan nan nan nan nan nan nan nan nan nan nan nan 221 nan 226 224 nan nan 208 208 210 212 209 228 227 224 224 218 217 224 242 248 234 224 220 218 223 220 211 207 210 217 222 224 227 232 nan 236 237 228 224 220 219 212 208 209 217 226 230 233 227 221 213 209 202 201 200 200 199 202 203 201 199 203 202 204 204 207 201
nan nan nan nan nan nan nan nan nan nan nan nan nan nan nan nan nan nan nan nan nan 231 nan nan nan nan nan nan 212 220 231 232 233 234 226 221 229 231 227 227 218 219 225 227 223 218 216 209 208 215 217 216 219 227 234 238 237 226 217 213 214 222 219 215 212 215 218 227 226 225 219 211 207 203 204 204 202 202 203 203 206 208 210 217 212 209
nan nan nan nan nan nan nan nan nan nan nan nan nan nan nan nan nan nan nan nan nan nan nan nan nan nan nan 207 219 224 227 234 229 234 230 221 219 220 226 236 232 224 224 228 222 222 226 216 207 211 212 211 218 226 235 234 233 229 222 217 223 222 219 221 217 217 215 214 218 221 219 214 213 211 209 210 208 203 204 207 208 209 215 221 216 217
nan nan nan nan nan nan nan nan nan nan nan nan nan nan nan nan nan nan nan nan nan nan nan nan nan nan nan 206 211 219 223 232 231 233 234 230 218 212 219 223 221 219 217 221 223 226 229 222 212 209 210 210 212 218 224 231 235 233 224 218 219 224 218 215 213 214 219 218 215 213 211 211 209 210 210 211 214 211 212 214 212 215 219 220 221 221
190 nan nan nan nan nan nan nan nan nan nan nan nan nan nan nan nan nan nan nan nan nan nan 223 223 nan nan 215 209 219 224 nan nan 235 nan 235 227 217 212 217 221 219 217 218 219 219 221 221 216 215 215 215 214 216 221 222 222 222 221 219 221 227 228 225 220 217 218 218 216 213 212 210 207 206 203 204 207 211 217 223 225 227 229 229 229 232
nan nan nan nan nan nan nan nan nan nan nan nan nan nan nan nan nan nan nan 222 233 nan nan nan nan nan 233 229 224 nan nan nan nan nan nan nan 234 225 218 216 217 221 219 222 221 218 218 215 215 217 220 221 220 220 221 223 221 218 220 223 225 225 228 230 228 230 227 223 221 218 217 210 204 203 201 199 201 199 206 217 227 236 241 243 242 242
nan nan nan nan nan nan nan nan nan nan nan nan nan nan nan nan 235 229 226 nan 228 226 233 nan nan nan 238 240 nan 242 nan 239 nan nan nan nan nan nan nan 227 224 223 218 221 225 224 221 219 220 221 222 221 219 219 221 224 221 215 213 215 216 225 228 228 227 229 231 234 235 231 226 220 219 211 205 200 201 197 196 199 210 227 239 246 248 249
nan nan nan nan nan nan nan nan nan nan nan nan nan nan 215 nan nan nan 226 226 nan 230 233 nan 241 254 248 252 251 251 nan 250 247 nan nan nan nan nan nan 234 234 230 225 221 223 223 221 221 224 225 224 223 224 223 224 229 228 224 220 221 218 217 218 220 228 229 225 222 230 241 255 255 244 236 228 221 213 207 203 199 198 210 228 242 247 249
nan nan nan nan nan nan nan nan nan nan nan nan nan nan 213 nan nan 226 230 223 231 236 226 nan 252 255 253 256 253 253 nan nan nan nan nan nan nan nan nan nan nan 234 231 227 225 224 223 219 221 225 228 228 227 226 226 226 224 222 225 227 225 223 223 218 221 228 234 233 223 212 212 228 243 252 248 234 225 218 210 209 209 209 214 230 239 245
nan nan nan nan nan nan nan nan nan nan nan nan nan nan nan 217 220 221 214 231 237 nan nan 246 250 253 255 254 254 253 nan nan nan nan nan nan nan 246 nan 241 235 nan 226 225 221 222 223 223 222 223 225 228 230 227 225 223 222 222 224 224 228 231 232 232 228 224 227 231 229 231 230 225 221 225 231 238 234 222 214 211 212 216 220 223 228 237
nan nan nan nan nan nan nan nan nan nan nan nan 211 212 nan nan 223 227 225 220 225 227 nan 248 238 239 245 250 252 252 nan nan nan nan nan nan 244 239 241 241 238 234 229 224 224 224 229 225 223 225 230 224 222 223 222 222 224 226 225 226 228 227 223 225 228 225 225 224 224 226 229 228 228 231 233 233 233 228 220 216 213 211 215 223 227 226
nan nan nan nan nan nan nan nan nan nan 219 222 217 218 220 227 226 222 228 231 233 235 240 240 241 239 232 240 nan 243 245 nan nan nan nan nan nan 240 238 238 239 238 235 231 nan 227 229 229 228 226 228 226 220 219 221 223 224 225 225 225 226 228 228 229 228 227 226 226 222 225 229 231 229 229 226 224 226 226 223 220 221 218 212 216 223 226
nan nan nan nan nan nan nan nan nan nan 214 220 218 217 217 222 230 225 229 225 234 240 243 243 240 238 238 243 244 247 nan nan nan nan nan nan nan 232 235 235 233 232 231 231 231 nan 233 234 235 232 233 235 228 224 227 231 230 224 220 219 222 221 223 228 231 229 228 228 225 227 228 226 228 230 228 228 229 229 227 227 227 225 223 220 221 222
nan nan nan nan nan nan nan nan nan nan nan nan nan nan 216 221 224 225 223 224 239 249 244 244 242 243 249 252 255 255 nan nan nan nan nan nan nan nan 232 234 237 235 234 232 230 229 230 234 236 234 236 241 243 237 234 237 238 235 229 226 223 223 224 227 228 228 227 226 225 225 226 226 226 228 229 229 233 235 239 240 236 231 227 226 226 226
nan nan nan nan nan nan nan nan nan nan nan nan nan nan nan 221 232 232 226 229 230 227 231 234 246 245 248 252 259 263 nan nan nan nan nan nan nan nan nan nan 236 239 239 237 235 232 231 233 234 235 235 237 240 240 239 239 242 nan 241 239 237 235 229 227 227 229 227 226 222 222 224 226 226 226 226 226 227 228 232 237 237 233 230 229 229 228
nan nan nan nan nan nan nan nan nan nan nan nan nan nan 216 222 230 232 228 221 223 237 241 242 245 250 248 249 253 253 249 nan nan nan nan nan nan nan nan nan nan nan nan 242 240 nan 236 237 237 238 237 235 236 237 238 236 238 242 241 237 235 233 231 228 231 232 235 235 230 226 223 224 227 227 226 225 225 226 226 227 226 227 231 239 242 241
nan nan nan nan nan nan nan nan nan nan nan nan 205 217 225 225 231 237 227 222 224 232 245 245 242 243 245 246 246 247 249 248 nan nan nan nan nan nan nan nan nan nan 247 nan nan nan 238 238 239 240 242 241 241 241 242 243 241 243 243 239 235 232 231 232 236 238 239 241 243 243 234 227 229 233 234 233 232 233 232 230 228 227 232 241 246 246
nan nan nan nan nan nan nan nan nan nan nan 201 206 212 211 220 233 242 237 229 226 234 245 249 245 246 248 247 247 247 246 245 nan nan nan nan nan nan nan nan nan nan nan nan nan nan nan nan nan nan nan nan nan nan nan nan nan nan nan nan 241 240 238 239 240 238 235 240 247 254 254 247 242 238 238 238 239 240 241 239 237 235 239 240 242 242
nan nan nan nan nan nan nan nan nan nan nan 201 206 205 211 216 220 224 239 230 229 234 241 253 254 252 252 251 252 252 251 248 245 nan nan nan nan nan nan nan nan nan nan nan nan nan nan nan nan nan nan nan nan nan nan nan nan nan nan nan nan nan nan nan 245 244 241 238 241 246 251 251 250 249 249 249 244 243 244 242 242 241 242 240 238 238
nan nan nan nan nan nan nan nan nan nan nan 215 210 213 214 219 231 231 235 236 232 237 242 253 255 254 257 258 256 255 252 251 248 247 nan nan nan nan nan nan nan nan nan nan nan nan nan nan nan nan nan nan nan nan nan nan nan nan nan nan nan nan nan nan nan nan nan 240 241 244 245 247 248 247 248 249 249 250 248 242 240 242 242 242 240 236
nan nan nan nan nan nan nan nan nan nan nan nan nan 222 222 226 234 238 241 240 242 243 242 249 256 256 253 254 253 248 254 255 255 250 249 nan nan nan nan nan nan nan nan nan nan nan nan nan nan nan nan nan nan nan nan nan nan nan nan nan nan nan nan nan nan nan nan nan nan nan nan 246 247 248 246 243 243 246 248 249 246 242 243 243 243 242
nan nan nan nan nan nan nan nan nan nan nan nan nan 228 229 240 244 248 251 248 251 250 247 249 257 258 258 256 252 254 241 250 254 nan nan nan nan nan nan nan nan nan nan nan nan nan nan nan nan nan nan nan nan nan nan nan nan nan nan nan nan nan nan nan nan nan nan nan nan nan nan nan nan nan nan nan nan 245 249 251 250 247 248 250 249 247
nan nan nan nan nan nan nan nan nan nan nan nan nan 237 235 241 nan nan nan 244 252 255 248 251 257 260 264 263 251 247 249 248 nan 254 252 nan nan nan nan nan nan nan nan nan nan nan nan nan nan nan nan nan nan nan nan nan nan nan nan nan nan nan nan nan nan nan nan nan nan nan nan nan nan nan nan nan nan nan nan nan 250 250 249 249 250 250
nan nan nan nan nan nan nan nan nan nan nan nan nan 233 237 nan nan nan nan 239 242 250 255 251 253 252 253 250 249 257 258 256 257 258 257 nan nan nan nan nan nan nan nan nan nan nan nan nan nan nan nan nan nan nan nan nan nan nan nan nan nan nan nan nan nan nan nan nan nan nan nan nan nan nan nan nan nan nan nan nan nan nan nan nan 247 247
nan nan nan nan nan nan nan nan nan nan nan nan nan nan nan nan nan nan nan 242 240 248 253 251 245 248 252 257 259 261 263 259 251 253 253 nan nan nan nan nan nan nan nan nan nan nan nan nan nan nan nan nan nan nan nan nan nan nan nan nan nan nan nan nan nan nan nan nan nan nan nan nan nan nan nan nan nan nan nan nan nan nan nan nan nan nan
nan nan nan nan nan nan nan nan nan nan nan nan nan nan nan nan nan nan nan 240 248 244 245 251 249 247 253 256 258 261 260 261 261 nan nan nan nan nan nan nan nan nan nan nan nan nan nan nan nan nan nan nan nan nan nan nan nan nan nan nan nan nan nan nan nan nan nan nan nan nan nan nan nan nan nan nan nan nan nan nan nan nan nan nan nan nan
nan nan nan nan nan nan nan nan nan nan nan nan nan nan nan nan nan nan nan nan 235 242 246 255 251 253 251 256 256 254 260 259 nan nan nan nan nan nan nan nan nan nan nan nan nan nan nan nan nan nan nan nan nan nan nan nan nan nan nan nan nan nan nan nan nan nan nan nan nan nan nan nan nan nan nan nan nan nan nan nan nan nan nan nan nan nan
nan nan nan nan nan nan nan nan nan nan nan nan nan nan nan nan nan nan nan 237 241 244 244 246 254 250 251 252 259 255 253 255 nan nan nan nan nan nan nan nan nan nan nan nan nan nan nan nan nan nan nan nan nan nan nan nan nan nan nan nan nan nan nan nan nan nan nan nan nan nan nan nan nan nan nan nan nan nan nan nan nan nan nan nan nan nan
nan nan nan nan nan nan nan nan nan nan nan nan nan nan nan nan nan nan nan nan nan 242 246 248 249 250 248 247 251 255 253 251 254 252 nan nan nan nan nan nan nan nan nan nan nan nan nan nan nan nan nan nan nan nan nan nan nan nan nan nan nan nan nan nan nan nan nan nan nan nan nan nan nan nan nan nan nan nan nan nan nan nan nan nan nan nan
nan nan nan nan nan nan nan nan nan nan nan nan nan nan nan nan nan nan nan nan nan nan nan nan 241 250 248 250 247 251 252 247 250 252 252 249 nan nan nan nan nan nan nan nan nan nan nan nan nan nan nan nan nan nan nan nan nan nan nan nan nan nan nan nan nan nan nan nan nan nan nan nan nan nan nan nan nan nan nan nan nan nan nan nan nan nan
nan nan nan nan nan nan nan nan nan nan nan nan nan nan nan nan nan nan nan nan nan nan nan nan nan nan nan nan 253 252 254 250 251 253 255 252 nan nan nan nan nan nan nan nan nan nan nan nan nan nan nan nan nan nan nan nan nan nan nan nan nan nan nan nan nan nan nan nan nan nan nan nan nan nan nan nan nan nan nan nan nan nan nan nan nan nan
nan nan nan nan nan nan nan nan nan nan nan nan nan nan nan nan nan nan nan nan nan nan nan nan nan nan nan nan nan nan nan nan nan nan nan nan nan nan nan nan nan nan nan nan nan nan nan nan nan nan nan nan nan nan nan nan nan nan nan nan nan nan nan nan nan nan nan nan nan nan nan nan nan nan nan nan nan nan nan nan nan nan nan nan nan nan